Capitol Logistics 993


HTZA
Abeid Amani Karume International Airport
Zanzibar, TZ
FMMI
Ivato International Airport
Antananarivo, MG

Activity Log

Date Flight Route Aircraft Duration
03/30/2020 CPX993 DV UA401 TN TN1A B763 2h 29m
12/20/2019 CPX993 UVMEX UT913 KINAN UA401 DIRBA KEKIN KEKI1B B763 2h 27m
11/17/2019 CPX993 Not Available B763 2h 35m

Route Details

Aircraft Information
Primary: Boeing 767-300BDSF
Backup: Not Available
Route Data
Distance: 893nm
Sched. Duration: 2h 04m
Avg. Duration: 2h 30m (+26m)
Times Flown: 3
Recm'd Route: Not Available
Planned Altitude: 33,000ft
Origin Wx: HTZA 121900Z 13004KT 9999 FEW012 25/21 Q1015 NOSIG
Dest. Wx: FMMI 130100Z 12004KT 090V160 9999 FEW006 BKN020 13/12 Q1021 NOSIG
Notes:

Financial History
Total Freight: 215,514lbs
Average Load: 71,838lbs/flt
Fuel Used: 72,282lbs
Avg. Fuel Used: 24,094lbs/flt
Fuel Expense: $49,152
Avg. Fuel Expense: $16,384
Avg. Fuel Cost: $0.68/lbs
Total Gross Income: $2,116,347
Pilot Pay: $567
Total Expenses: $228,722
Total Revenue: $1,836,942
Average Revenue: $705,449.15